Location: Stanford
(52.2833°N, 2.4333°W)
Time: 02:58:59
(UTC+00:00)

SJ 16-02 - Pass Details

Date: 22 January 2021
Orbit: 607 x 615 km, 75.0° (Epoch: 24 February)

Event Time Altitude Azimuth Distance (km) Brightness Sun altitude
Rises 17:40:50 0° 167° (SSE) 2,866 4.9 -9.3°
Reaches altitude 10° 17:43:22 10° 154° (SSE) 1,965 3.9 -9.7°
Maximum altitude 17:46:55 25° 100° (E) 1,257 2.4 -10.2°
Enters shadow 17:49:53 13° 51° (NE) 1,784 3.1 -10.7°
